Home   Weather   Winston-Salem   Past weeks

Flag for USA Past Weather in Winston-Salem, North Carolina, USA — Yesterday and Last 2 Weeks

Now
53 °F

Fog.


Feels Like: 53 °F
Forecast: 51 / 60 °F
Wind: No wind

Location: Smith Reynolds Airport

Current Time: Jan 21, 2017 at 10:42:59 am

Latest Report: Jan 21, 2017 at 9:54 am


Visibility: 4 mi

Pressure: 29.90 "Hg

Humidity: 96%

Dew Point: 52 °F

Location of Winston-SalemLocation

Past Weather in Winston-Salem — Graph

°F

Winston-Salem Temperature Yesterday

Maximum temperature yesterday: 54 °F (at 2:54 pm)
Minimum temperature yesterday: 46 °F (at 7:54 am)
Average temperature yesterday: 50 °F

High & Low Weather Summary for the Past Weeks

 TemperatureHumidityPressure
High69 °F (Jan 12, 2:54 pm)97% (Jan 12, 2:14 am)30.79 "Hg (Jan 12, 2:14 am)
Low7 °F (Jan 9, 3:54 am)28% (Jan 8, 2:54 pm)29.83 "Hg (Jan 20, 2:54 pm)
Average43 °F71%30.27 "Hg
* Reported Jan 6 9:54 am — Jan 21 9:23 am, Winston-Salem, Weather by CustomWeather, © 2017

Note: Actual official high and low records may vary slightly from our data, if they occured in-between our weather recording intervals... More about our weather records

Advertising

Winston-Salem Weather History for the Previous 24 Hours

Scroll right to see more
 ConditionsComfort  
Time TempWeatherWind HumidityBarometerVisibility
9:23 am
Sat, Jan 21
53 °FFog.3 mph93%29.90 "Hg1 mi
8:54 am52 °FFog.No wind97%29.89 "Hg1 mi
7:54 am51 °FFog.No wind96%29.90 "Hg0 mi
7:34 am51 °FFog.No wind96%29.91 "Hg0 mi
6:54 am51 °FFog.No wind96%29.91 "Hg1 mi
5:54 am51 °FFog.No wind96%29.90 "Hg1 mi
5:01 am51 °FFog.No wind96%29.91 "Hg1 mi
4:35 am51 °FFog.No wind96%29.91 "Hg1 mi
3:54 am51 °FFog.No wind92%29.90 "Hg1 mi
2:54 am51 °FFog.No wind92%29.91 "Hg1 mi
1:54 am51 °FFog.No wind96%29.91 "Hg1 mi
1:09 am51 °FFog.No wind96%29.91 "Hg1 mi
12:54 am51 °FFog.No wind96%29.90 "Hg1 mi
12:13 am51 °FFog.3 mph96%29.92 "Hg1 mi
12:01 am51 °FFog.No wind96%29.92 "Hg1 mi
11:11 pm
Fri, Jan 20
51 °FFog.3 mph96%29.93 "Hg0 mi
10:54 pm51 °FFog.3 mph92%29.92 "Hg1 mi
10:13 pm51 °FFog.No wind92%29.92 "Hg1 mi
10:01 pm51 °FFog.No wind92%29.92 "Hg1 mi
9:32 pm51 °FFog.No wind92%29.92 "Hg2 mi
8:54 pm52 °FFog.No wind93%29.90 "Hg3 mi
7:54 pm52 °FFog.No wind93%29.90 "Hg5 mi
6:54 pm53 °FFog.3 mph89%29.89 "Hg6 mi
5:54 pm54 °FFog.No wind86%29.86 "Hg7 mi
4:54 pm54 °FFog.3 mph86%29.86 "Hg4 mi
3:54 pm54 °FLow clouds.5 mph83%29.85 "Hg10 mi
2:54 pm54 °FLow clouds.No wind83%29.83 "Hg6 mi
2:02 pm53 °FFog.No wind86%29.85 "Hg6 mi
1:54 pm52 °FFog.3 mph89%29.85 "Hg6 mi
12:54 pm51 °FFog.No wind92%29.86 "Hg4 mi
11:54 am50 °FFog.3 mph89%29.89 "Hg4 mi
11:35 am49 °FFog.No wind93%29.91 "Hg3 mi
10:54 am48 °FFog.3 mph93%29.91 "Hg1 mi
10:19 am48 °FFog.5 mph89%29.92 "Hg2 mi
Weather by CustomWeather, © 2017

See weather overviewHow to use our weather pages